{"data":{"norad_id":49198,"intl_designator":"2021-083N","name":"ONEWEB-0331","alt_names":[],"object_type":"PAYLOAD","status":"ACTIVE","operator":null,"country":"UK","launch_date":"2021-09-14","launch_site_code":"TYMSC","launch_vehicle":null,"mission":null,"orbit_class":"UNKNOWN","rcs_meters":null,"size_class":null,"mass_kg":null,"dimensions":null,"purposes":["comms"],"wikipedia_slug":null,"has_3d_model":false,"image_url":null,"decayed_at":null,"tle_current":{"epoch":"2026-05-25T01:56:00.404736Z","epoch_age_seconds":64240,"freshness":"FRESH","line1":"1 49198U 21083N   26145.08056024 -.00000015  00000+0 -70827-4 0  9993","line2":"2 49198  87.9170 340.0476 0002151  92.6341 267.5037 13.18686122226966","mean_motion":13.18686122,"eccentricity":0.0002151,"inclination_deg":87.917,"raan_deg":340.0476,"arg_perigee_deg":92.6341,"mean_anomaly_deg":267.5037,"bstar":-7.0827e-5,"rev_number":22696,"period_min":109.19960223863,"perigee_km":1188.1148091838,"apogee_km":1191.3705110135,"semimajor_km":7567.8796600986,"source":"CELESTRAK","updated_at":"2026-05-25T13:38:22.491404Z"}}}